User: anonymous   Login
Location: Unspecified
(0.0000°N, 0.0000°E)
Time: 20:48:24
(UTC+00:00)
Language:

SENTINEL 1B - Orbit

View from above orbital plane
View from above orbital plane
View from above satellite
View from above satellite

Ground track
Ground track

The orbit is defined by the following mean orbital elements,

1 41456U          26150.50579946 +.00000000 +00000-0 +27148-3 0 00007
2 41456  98.0920 210.5812 0016811 184.3903 175.7174 14.99112252    02
Epoch (UTC): 30 May 2026 12:08:21
Eccentricity: 0.0016811
inclination: 98.0920°
perigee height: 558 km
apogee height: 581 km
right ascension of ascending node: 210.5812°
argument of perigee: 184.3903°
revolutions per day: 14.99112252
mean anomaly at epoch: 175.7174°

The dashed part of the orbit path shows where the satellite is in the earth's shadow,  

DLR